,,Stat6,,Stat2,,Stat8,,Stat9,,Stat10,,Wind1,,Wind1,
time,status,PA1M_AVG,status,PR1M_SUM,status,RH1M_AVG,status,SR1M_AVG,status,TA1M_AVG,status,W1dAve1m,status,W1sAve1m,
2007-12-30, 00:00:01,VALID,915.51,VALID,0,VALID,100,VALID,0,VALID,18.6176,VALID,142,VALID,1.06726,
2007-12-30, 00:01:01,VALID,915.497,VALID,0,VALID,100,VALID,-0.0339617,VALID,18.6047,VALID,146,VALID,1.09375,
2007-12-30, 00:02:00,VALID,915.492,VALID,0,VALID,100,VALID,0,VALID,18.5947,VALID,148,VALID,0.965924,
2007-12-30, 00:03:00,VALID,915.49,VALID,0,VALID,100,VALID,0,VALID,18.585,VALID,154,VALID,1.03697,
2007-12-30, 00:04:00,VALID,915.485,VALID,0,VALID,100,VALID,0,VALID,18.5748,VALID,150,VALID,0.866616,
2007-12-30, 00:05:00,VALID,915.478,VALID,0,VALID,100,VALID,0,VALID,18.5683,VALID,141,VALID,0.716518,
2007-12-30, 00:06:00,VALID,915.463,VALID,0,VALID,100,VALID,-0.0169808,VALID,18.5653,VALID,129,VALID,0.355903,
2007-12-30, 00:07:00,VALID,915.47,VALID,0,VALID,100,VALID,0,VALID,18.5623,VALID,119,VALID,0.508575,
2007-12-30, 00:08:00,VALID,915.454,VALID,0,VALID,100,VALID,0.0169808,VALID,18.5588,VALID,105,VALID,0.615916,
2007-12-30, 00:09:00,VALID,915.467,VALID,0,VALID,100,VALID,-0.0169808,VALID,18.543,VALID,88,VALID,0.646913,
2007-12-30, 00:10:00,VALID,915.461,VALID,0,VALID,100,VALID,0,VALID,18.5331,VALID,99,VALID,0.664608,
2007-12-30, 00:11:01,VALID,915.449,VALID,0,VALID,100,VALID,-0.0169808,VALID,18.5131,VALID,96,VALID,0.697173,
2007-12-30, 00:12:00,VALID,915.435,VALID,0,VALID,100,VALID,-0.0169808,VALID,18.5009,VALID,92,VALID,0.821514,
2007-12-30, 00:13:01,VALID,915.433,VALID,0,VALID,100,VALID,0,VALID,18.4877,VALID,96,VALID,0.946766,
2007-12-30, 00:14:01,VALID,915.412,VALID,0,VALID,100,VALID,0,VALID,18.4745,VALID,107,VALID,0.922917,
2007-12-30, 00:15:00,VALID,915.389,VALID,0,VALID,100,VALID,0,VALID,18.4682,VALID,107,VALID,0.874822,
2007-12-30, 00:16:00,VALID,915.405,VALID,0,VALID,100,VALID,0.0169808,VALID,18.4513,VALID,107,VALID,0.488086,
2007-12-30, 00:17:00,VALID,915.412,VALID,0,VALID,100,VALID,-0.0169808,VALID,18.4522,VALID,110,VALID,0.532522,
2007-12-30, 00:18:00,VALID,915.391,VALID,0,VALID,100,VALID,0.0339617,VALID,18.4548,VALID,122,VALID,0.502046,
2007-12-30, 00:19:01,VALID,915.377,VALID,0,VALID,100,VALID,0,VALID,18.4582,VALID,122,VALID,0.788699,
2007-12-30, 00:20:00,VALID,915.335,VALID,0,VALID,100,VALID,0.0169808,VALID,18.4487,VALID,124,VALID,1.26079,
2007-12-30, 00:21:00,VALID,915.326,VALID,0,VALID,100,VALID,0.0169808,VALID,18.4645,VALID,131,VALID,1.30625,
2007-12-30, 00:22:01,VALID,915.304,VALID,0,VALID,100,VALID,0,VALID,18.5168,VALID,128,VALID,1.16806,
2007-12-30, 00:23:01,VALID,915.304,VALID,0,VALID,100,VALID,0,VALID,18.5495,VALID,120,VALID,0.953711,
2007-12-30, 00:24:00,VALID,915.29,VALID,0,VALID,100,VALID,0.0169808,VALID,18.5518,VALID,114,VALID,0.704527,
2007-12-30, 00:25:01,VALID,915.283,VALID,0,VALID,100,VALID,0,VALID,18.5294,VALID,108,VALID,0.160974,
2007-12-30, 00:26:01,VALID,915.278,VALID,0,VALID,100,VALID,0.0169808,VALID,18.4941,VALID,56,VALID,0.514482,
2007-12-30, 00:27:00,VALID,915.274,VALID,0,VALID,100,VALID,0,VALID,18.4578,VALID,53,VALID,0.598189,
2007-12-30, 00:28:00,VALID,915.251,VALID,0,VALID,100,VALID,0.0169808,VALID,18.4448,VALID,69,VALID,0.52567,
2007-12-30, 00:29:00,VALID,915.224,VALID,0,VALID,100,VALID,0.0169808,VALID,18.4453,VALID,97,VALID,0.547877,
2007-12-30, 00:30:00,VALID,915.208,VALID,0,VALID,100,VALID,0.0339617,VALID,18.4256,VALID,97,VALID,0.482973,
2007-12-30, 00:31:01,VALID,915.184,VALID,0,VALID,100,VALID,0.0169808,VALID,18.4061,VALID,97,VALID,0.556424,
2007-12-30, 00:32:00,VALID,915.189,VALID,0,VALID,100,VALID,0,VALID,18.3665,VALID,97,VALID,0.156622,
2007-12-30, 00:33:00,VALID,915.18,VALID,0,VALID,100,VALID,0,VALID,18.3607,VALID,97,VALID,0,
2007-12-30, 00:34:00,VALID,915.162,VALID,0,VALID,100,VALID,0.0339617,VALID,18.3408,VALID,97,VALID,0,
2007-12-30, 00:35:00,VALID,915.157,VALID,0,VALID,100,VALID,0.0169808,VALID,18.3345,VALID,97,VALID,0,
2007-12-30, 00:36:00,VALID,915.153,VALID,0,VALID,100,VALID,0.0339617,VALID,18.3153,VALID,97,VALID,0.0110518,
2007-12-30, 00:37:00,VALID,915.135,VALID,0,VALID,100,VALID,0.0169808,VALID,18.2794,VALID,97,VALID,0.595348,
2007-12-30, 00:38:00,VALID,915.145,VALID,0,VALID,100,VALID,-0.0169808,VALID,18.2769,VALID,89,VALID,0.828125,
2007-12-30, 00:39:00,VALID,915.141,VALID,0,VALID,100,VALID,0,VALID,18.2769,VALID,80,VALID,0.887649,
2007-12-30, 00:40:01,VALID,915.145,VALID,0,VALID,100,VALID,-0.0339617,VALID,18.2799,VALID,79,VALID,0.715234,
2007-12-30, 00:41:00,VALID,915.143,VALID,0,VALID,100,VALID,0,VALID,18.3155,VALID,79,VALID,0.75327,
2007-12-30, 00:42:01,VALID,915.136,VALID,0,VALID,100,VALID,-0.0679233,VALID,18.3359,VALID,86,VALID,0.848133,
2007-12-30, 00:43:01,VALID,915.14,VALID,0,VALID,100,VALID,-0.101885,VALID,18.3454,VALID,119,VALID,0.876065,
2007-12-30, 00:44:01,VALID,915.144,VALID,0,VALID,100,VALID,-0.0849042,VALID,18.3519,VALID,129,VALID,0.816501,
2007-12-30, 00:45:01,VALID,915.134,VALID,0,VALID,100,VALID,-0.0849042,VALID,18.3424,VALID,142,VALID,0.992759,
2007-12-30, 00:46:01,VALID,915.13,VALID,0,VALID,100,VALID,-0.0849042,VALID,18.3193,VALID,142,VALID,0.755269,
2007-12-30, 00:47:00,VALID,915.114,VALID,0,VALID,100,VALID,-0.0849042,VALID,18.3065,VALID,135,VALID,0.429497,
2007-12-30, 00:48:01,VALID,915.099,VALID,0,VALID,100,VALID,-0.101885,VALID,18.2384,VALID,105,VALID,0.446289,
2007-12-30, 00:49:01,VALID,915.093,VALID,0,VALID,100,VALID,-0.101885,VALID,18.1606,VALID,53,VALID,0.219512,
2007-12-30, 00:50:01,VALID,915.075,VALID,0,VALID,100,VALID,-0.101885,VALID,18.1638,VALID,53,VALID,0,
2007-12-30, 00:51:01,VALID,915.06,VALID,0,VALID,100,VALID,-0.0679233,VALID,18.1675,VALID,67,VALID,0.333891,
2007-12-30, 00:52:01,VALID,915.044,VALID,0,VALID,100,VALID,-0.101885,VALID,18.1937,VALID,118,VALID,0.62571,
2007-12-30, 00:53:01,VALID,915.032,VALID,0,VALID,100,VALID,-0.101885,VALID,18.219,VALID,118,VALID,0.683966,
2007-12-30, 00:54:01,VALID,915.021,VALID,0,VALID,100,VALID,-0.0849042,VALID,18.2544,VALID,118,VALID,0.747514,
2007-12-30, 00:55:00,VALID,914.997,VALID,0,VALID,100,VALID,-0.0679233,VALID,18.3098,VALID,118,VALID,0.899805,
2007-12-30, 00:56:00,VALID,914.988,VALID,0,VALID,100,VALID,-0.101885,VALID,18.3329,VALID,122,VALID,1.03416,
2007-12-30, 00:57:00,VALID,914.988,VALID,0,VALID,100,VALID,-0.0169808,VALID,18.342,VALID,124,VALID,0.829514,
2007-12-30, 00:58:00,VALID,914.972,VALID,0,VALID,100,VALID,-0.0509425,VALID,18.3322,VALID,124,VALID,0.687691,
2007-12-30, 00:59:00,VALID,914.976,VALID,0,VALID,100,VALID,-0.0849042,VALID,18.316,VALID,124,VALID,0.19401,
2007-12-30, 01:00:00,VALID,914.966,VALID,0,VALID,100,VALID,-0.0849042,VALID,18.2901,VALID,124,VALID,0,
2007-12-30, 01:01:00,VALID,914.964,VALID,0,VALID,100,VALID,-0.0679233,VALID,18.2583,VALID,124,VALID,0,
2007-12-30, 01:02:00,VALID,914.966,VALID,0,VALID,100,VALID,-0.0849042,VALID,18.2419,VALID,124,VALID,0.218936,
2007-12-30, 01:03:00,VALID,914.979,VALID,0,VALID,100,VALID,-0.101885,VALID,18.219,VALID,125,VALID,0.508008,
2007-12-30, 01:04:00,VALID,914.984,VALID,0,VALID,100,VALID,-0.0509425,VALID,18.2222,VALID,132,VALID,0.925868,
2007-12-30, 01:05:00,VALID,914.993,VALID,0,VALID,100,VALID,-0.101885,VALID,18.2546,VALID,143,VALID,0.961939,
2007-12-30, 01:06:00,VALID,914.999,VALID,0,VALID,100,VALID,-0.0849042,VALID,18.2935,VALID,144,VALID,1.09121,
2007-12-30, 01:07:00,VALID,914.979,VALID,0,VALID,100,VALID,-0.0849042,VALID,18.3257,VALID,143,VALID,1.22716,
2007-12-30, 01:08:00,VALID,914.979,VALID,0,VALID,100,VALID,-0.0339617,VALID,18.3649,VALID,139,VALID,1.30504,
2007-12-30, 01:09:00,VALID,914.963,VALID,0,VALID,100,VALID,-0.0509425,VALID,18.3973,VALID,128,VALID,1.30642,
2007-12-30, 01:10:00,VALID,914.961,VALID,0,VALID,100,VALID,-0.0509425,VALID,18.4077,VALID,128,VALID,1.1849,
2007-12-30, 01:11:00,VALID,914.96,VALID,0,VALID,100,VALID,-0.0849042,VALID,18.3973,VALID,126,VALID,0.997768,
2007-12-30, 01:12:00,VALID,914.959,VALID,0,VALID,100,VALID,-0.135847,VALID,18.3976,VALID,125,VALID,0.821584,
2007-12-30, 01:13:00,VALID,914.943,VALID,0,VALID,100,VALID,-0.0849042,VALID,18.3816,VALID,125,VALID,0.693979,
2007-12-30, 01:14:00,VALID,914.923,VALID,0,VALID,100,VALID,-0.0849042,VALID,18.3751,VALID,124,VALID,0.806076,
2007-12-30, 01:15:00,VALID,914.89,VALID,0,VALID,100,VALID,-0.0849042,VALID,18.3429,VALID,120,VALID,0.868075,
2007-12-30, 01:16:00,VALID,914.901,VALID,0,VALID,100,VALID,-0.101885,VALID,18.303,VALID,125,VALID,0.923549,
2007-12-30, 01:17:00,VALID,914.887,VALID,0,VALID,100,VALID,-0.101885,VALID,18.3035,VALID,135,VALID,0.889881,
2007-12-30, 01:18:00,VALID,914.871,VALID,0,VALID,100,VALID,-0.101885,VALID,18.2743,VALID,130,VALID,0.929116,
2007-12-30, 01:19:00,VALID,914.861,VALID,0,VALID,100,VALID,-0.0679233,VALID,18.2581,VALID,117,VALID,0.823219,
2007-12-30, 01:20:00,VALID,914.866,VALID,0,VALID,100,VALID,-0.101885,VALID,18.2359,VALID,110,VALID,0.774891,
2007-12-30, 01:21:00,VALID,914.843,VALID,0,VALID,100,VALID,-0.0849042,VALID,18.2317,VALID,110,VALID,0.894531,
2007-12-30, 01:22:00,VALID,914.826,VALID,0,VALID,100,VALID,-0.0849042,VALID,18.2291,VALID,110,VALID,1.10278,
2007-12-30, 01:23:00,VALID,914.814,VALID,0,VALID,100,VALID,-0.0679233,VALID,18.2287,VALID,110,VALID,1.22656,
2007-12-30, 01:24:00,VALID,914.812,VALID,0,VALID,100,VALID,-0.0679233,VALID,18.2254,VALID,109,VALID,0.833333,
2007-12-30, 01:25:00,VALID,914.815,VALID,0,VALID,100,VALID,-0.0849042,VALID,18.2,VALID,105,VALID,0.378452,
2007-12-30, 01:26:00,VALID,914.806,VALID,0,VALID,100,VALID,-0.0849042,VALID,18.1156,VALID,103,VALID,0,
2007-12-30, 01:27:00,VALID,914.808,VALID,0,VALID,100,VALID,-0.0849042,VALID,18.086,VALID,103,VALID,0,
2007-12-30, 01:28:00,VALID,914.793,VALID,0,VALID,100,VALID,-0.101885,VALID,18.1089,VALID,103,VALID,0,
2007-12-30, 01:29:00,VALID,914.782,VALID,0,VALID,100,VALID,-0.0849042,VALID,18.0825,VALID,103,VALID,0,
2007-12-30, 01:30:00,VALID,914.772,VALID,0,VALID,100,VALID,-0.0509425,VALID,18.0633,VALID,103,VALID,0,
2007-12-30, 01:31:00,VALID,914.773,VALID,0,VALID,100,VALID,-0.0849042,VALID,18.0473,VALID,103,VALID,0,
2007-12-30, 01:32:00,VALID,914.761,VALID,0,VALID,100,VALID,-0.0679233,VALID,18.0242,VALID,103,VALID,0,
2007-12-30, 01:33:00,VALID,914.766,VALID,0,VALID,100,VALID,-0.101885,VALID,18.0248,VALID,104,VALID,0.0268111,
2007-12-30, 01:34:00,VALID,914.771,VALID,0,VALID,100,VALID,-0.0849042,VALID,17.9732,VALID,104,VALID,0,
2007-12-30, 01:35:00,VALID,914.766,VALID,0,VALID,100,VALID,-0.101885,VALID,17.8981,VALID,104,VALID,0,
2007-12-30, 01:36:00,VALID,914.763,VALID,0,VALID,100,VALID,-0.0849042,VALID,17.8426,VALID,104,VALID,0,
2007-12-30, 01:37:00,VALID,914.761,VALID,0,VALID,100,VALID,-0.0849042,VALID,17.8365,VALID,104,VALID,0,
2007-12-30, 01:38:00,VALID,914.728,VALID,0,VALID,100,VALID,-0.0849042,VALID,17.8787,VALID,104,VALID,0,
2007-12-30, 01:39:00,VALID,914.703,VALID,0,VALID,100,VALID,-0.0679233,VALID,17.9049,VALID,104,VALID,0,
2007-12-30, 01:40:00,VALID,914.693,VALID,0,VALID,100,VALID,-0.0509425,VALID,17.9306,VALID,104,VALID,0,
2007-12-30, 01:41:00,VALID,914.663,VALID,0,VALID,100,VALID,-0.0509425,VALID,17.862,VALID,104,VALID,0,
2007-12-30, 01:42:00,VALID,914.639,VALID,0,VALID,100,VALID,-0.0339617,VALID,17.8423,VALID,104,VALID,0,
2007-12-30, 01:43:00,VALID,914.626,VALID,0,VALID,100,VALID,0,VALID,17.835,VALID,104,VALID,0,
2007-12-30, 01:44:00,VALID,914.612,VALID,0,VALID,100,VALID,0.0169808,VALID,17.7699,VALID,104,VALID,0,
2007-12-30, 01:45:00,VALID,914.601,VALID,0,VALID,100,VALID,0.0339617,VALID,17.7277,VALID,104,VALID,0,
2007-12-30, 01:46:00,VALID,914.6,VALID,0,VALID,100,VALID,0.0169808,VALID,17.7018,VALID,104,VALID,0,
2007-12-30, 01:47:00,VALID,914.607,VALID,0,VALID,100,VALID,0,VALID,17.6759,VALID,104,VALID,0,
2007-12-30, 01:48:00,VALID,914.59,VALID,0,VALID,100,VALID,0.0339617,VALID,17.6958,VALID,104,VALID,0,
2007-12-30, 01:49:00,VALID,914.594,VALID,0,VALID,100,VALID,0.0339617,VALID,17.7115,VALID,104,VALID,0,
2007-12-30, 01:50:00,VALID,914.567,VALID,0,VALID,100,VALID,0.0169808,VALID,17.6661,VALID,104,VALID,0.145089,
2007-12-30, 01:51:00,VALID,914.537,VALID,0,VALID,100,VALID,0.0509425,VALID,17.7213,VALID,104,VALID,0.65625,
2007-12-30, 01:52:00,VALID,914.544,VALID,0,VALID,100,VALID,0.0339617,VALID,17.8322,VALID,104,VALID,0.815163,
2007-12-30, 01:53:00,VALID,914.553,VALID,0,VALID,100,VALID,-0.0169808,VALID,17.8549,VALID,110,VALID,0.771775,
2007-12-30, 01:54:00,VALID,914.536,VALID,0,VALID,100,VALID,0.0339617,VALID,17.8873,VALID,126,VALID,0.845749,
2007-12-30, 01:55:00,VALID,914.507,VALID,0,VALID,100,VALID,0,VALID,17.8771,VALID,126,VALID,0.810802,
2007-12-30, 01:56:00,VALID,914.503,VALID,0,VALID,100,VALID,0.0339617,VALID,17.8579,VALID,137,VALID,0.9,
2007-12-30, 01:57:00,VALID,914.503,VALID,0,VALID,100,VALID,-0.0679233,VALID,17.8975,VALID,152,VALID,1.12322,
2007-12-30, 01:58:00,VALID,914.481,VALID,0,VALID,100,VALID,-0.0849042,VALID,17.9303,VALID,151,VALID,1.11737,
2007-12-30, 01:59:00,VALID,914.494,VALID,0,VALID,100,VALID,-0.0849042,VALID,17.966,VALID,154,VALID,0.877539,
2007-12-30, 02:00:00,VALID,914.503,VALID,0,VALID,100,VALID,-0.0849042,VALID,17.966,VALID,154,VALID,1.02778,
2007-12-30, 02:01:00,VALID,914.524,VALID,0,VALID,100,VALID,-0.101885,VALID,17.9561,VALID,146,VALID,0.575238,
2007-12-30, 02:02:00,VALID,914.519,VALID,0,VALID,99.9547,VALID,-0.0679233,VALID,17.8426,VALID,91,VALID,0.568677,
2007-12-30, 02:03:00,VALID,914.514,VALID,0,VALID,99.9484,VALID,-0.101885,VALID,17.7071,VALID,79,VALID,0.614139,
2007-12-30, 02:04:00,VALID,914.537,VALID,0,VALID,100,VALID,-0.0849042,VALID,17.6578,VALID,79,VALID,0.351563,
2007-12-30, 02:05:00,VALID,914.532,VALID,0,VALID,100,VALID,-0.0679233,VALID,17.6478,VALID,79,VALID,0,
2007-12-30, 02:06:00,VALID,914.528,VALID,0,VALID,100,VALID,-0.0509425,VALID,17.6545,VALID,79,VALID,0,
2007-12-30, 02:07:00,VALID,914.509,VALID,0,VALID,100,VALID,-0.0679233,VALID,17.6513,VALID,104,VALID,0.515224,
2007-12-30, 02:08:00,VALID,914.504,VALID,0,VALID,100,VALID,-0.0509425,VALID,17.6642,VALID,142,VALID,0.90067,
2007-12-30, 02:09:00,VALID,914.518,VALID,0,VALID,100,VALID,-0.0849042,VALID,17.6545,VALID,144,VALID,0.630149,
2007-12-30, 02:10:00,VALID,914.504,VALID,0,VALID,100,VALID,-0.0679233,VALID,17.6415,VALID,144,VALID,0.195676,
2007-12-30, 02:11:00,VALID,914.496,VALID,0,VALID,100,VALID,-0.0509425,VALID,17.6124,VALID,144,VALID,0.0369318,
2007-12-30, 02:12:00,VALID,914.491,VALID,0,VALID,100,VALID,-0.0509425,VALID,17.5799,VALID,144,VALID,0.264172,
2007-12-30, 02:13:00,VALID,914.468,VALID,0,VALID,100,VALID,-0.0849042,VALID,17.5508,VALID,144,VALID,0.276786,
2007-12-30, 02:14:00,VALID,914.459,VALID,0,VALID,100,VALID,-0.0679233,VALID,17.5086,VALID,144,VALID,0.797965,
2007-12-30, 02:15:00,VALID,914.463,VALID,0,VALID,100,VALID,-0.0679233,VALID,17.4991,VALID,144,VALID,0.233681,
2007-12-30, 02:16:00,VALID,914.458,VALID,0,VALID,100,VALID,-0.0849042,VALID,17.5054,VALID,144,VALID,0.235677,
2007-12-30, 02:17:00,VALID,914.469,VALID,0,VALID,100,VALID,-0.101885,VALID,17.551,VALID,144,VALID,0.55506,
2007-12-30, 02:18:00,VALID,914.463,VALID,0,VALID,100,VALID,-0.0849042,VALID,17.5899,VALID,140,VALID,0.687686,
2007-12-30, 02:19:00,VALID,914.464,VALID,0,VALID,100,VALID,-0.101885,VALID,17.6253,VALID,116,VALID,0.932884,
2007-12-30, 02:20:00,VALID,914.474,VALID,0,VALID,100,VALID,-0.101885,VALID,17.6165,VALID,110,VALID,0.754261,
2007-12-30, 02:21:00,VALID,914.495,VALID,0,VALID,100,VALID,-0.0679233,VALID,17.5934,VALID,117,VALID,0.699751,
2007-12-30, 02:22:00,VALID,914.507,VALID,0,VALID,100,VALID,-0.0849042,VALID,17.5639,VALID,150,VALID,0.68388,
2007-12-30, 02:23:00,VALID,914.52,VALID,0,VALID,100,VALID,-0.0849042,VALID,17.5382,VALID,157,VALID,1.16211,
2007-12-30, 02:24:00,VALID,914.521,VALID,0,VALID,100,VALID,-0.0849042,VALID,17.6355,VALID,144,VALID,1.31387,
2007-12-30, 02:25:00,VALID,914.52,VALID,0,VALID,100,VALID,-0.118866,VALID,17.6811,VALID,120,VALID,1.15645,
2007-12-30, 02:26:00,VALID,914.542,VALID,0,VALID,100,VALID,-0.0849042,VALID,17.6485,VALID,112,VALID,0.508523,
2007-12-30, 02:27:00,VALID,914.544,VALID,0,VALID,100,VALID,-0.0849042,VALID,17.6156,VALID,129,VALID,0.447731,
2007-12-30, 02:28:00,VALID,914.534,VALID,0,VALID,100,VALID,-0.0849042,VALID,17.5799,VALID,142,VALID,0.390253,
2007-12-30, 02:29:00,VALID,914.531,VALID,0,VALID,100,VALID,-0.0679233,VALID,17.5702,VALID,158,VALID,0.892882,
2007-12-30, 02:30:00,VALID,914.515,VALID,0,VALID,100,VALID,-0.0509425,VALID,17.5866,VALID,149,VALID,1.0426,
2007-12-30, 02:31:00,VALID,914.489,VALID,0,VALID,100,VALID,-0.0679233,VALID,17.6158,VALID,136,VALID,1.43306,
2007-12-30, 02:32:00,VALID,914.509,VALID,0,VALID,100,VALID,-0.101885,VALID,17.6193,VALID,139,VALID,0.378196,
2007-12-30, 02:33:00,VALID,914.529,VALID,0,VALID,100,VALID,-0.101885,VALID,17.6128,VALID,144,VALID,0.340021,
2007-12-30, 02:34:00,VALID,914.547,VALID,0,VALID,100,VALID,-0.101885,VALID,17.6323,VALID,155,VALID,0.665153,
2007-12-30, 02:35:00,VALID,914.509,VALID,0,VALID,100,VALID,-0.101885,VALID,17.6744,VALID,138,VALID,0.954578,
2007-12-30, 02:36:00,VALID,914.48,VALID,0,VALID,100,VALID,-0.0849042,VALID,17.6737,VALID,115,VALID,0.902616,
2007-12-30, 02:37:00,VALID,914.465,VALID,0,VALID,100,VALID,-0.101885,VALID,17.642,VALID,115,VALID,0.649414,
2007-12-30, 02:38:00,VALID,914.445,VALID,0,VALID,100,VALID,-0.101885,VALID,17.6031,VALID,116,VALID,0.930233,
2007-12-30, 02:39:00,VALID,914.439,VALID,0,VALID,100,VALID,-0.0509425,VALID,17.6033,VALID,136,VALID,0.751143,
2007-12-30, 02:40:00,VALID,914.436,VALID,0,VALID,100,VALID,-0.101885,VALID,17.5378,VALID,154,VALID,0.627544,
2007-12-30, 02:41:00,VALID,914.432,VALID,0,VALID,100,VALID,-0.0509425,VALID,17.5343,VALID,154,VALID,0.324219,
2007-12-30, 02:42:00,VALID,914.418,VALID,0,VALID,100,VALID,0,VALID,17.5218,VALID,154,VALID,0.557478,
2007-12-30, 02:43:00,VALID,914.389,VALID,0,VALID,100,VALID,-0.0849042,VALID,17.4892,VALID,134,VALID,0.648247,
2007-12-30, 02:44:00,VALID,914.388,VALID,0,VALID,100,VALID,-0.0509425,VALID,17.4729,VALID,108,VALID,0.908794,
2007-12-30, 02:45:00,VALID,914.397,VALID,0,VALID,100,VALID,-0.0339617,VALID,17.4956,VALID,104,VALID,0.917302,
2007-12-30, 02:46:00,VALID,914.407,VALID,0,VALID,100,VALID,-0.0339617,VALID,17.5477,VALID,105,VALID,0.858132,
2007-12-30, 02:47:00,VALID,914.4,VALID,0,VALID,100,VALID,-0.0339617,VALID,17.5311,VALID,106,VALID,0.680859,
2007-12-30, 02:48:00,VALID,914.402,VALID,0,VALID,100,VALID,-0.0169808,VALID,17.5278,VALID,111,VALID,1.07703,
2007-12-30, 02:49:00,VALID,914.377,VALID,0,VALID,100,VALID,-0.0339617,VALID,17.5443,VALID,121,VALID,1.21094,
2007-12-30, 02:50:00,VALID,914.377,VALID,0,VALID,100,VALID,-0.0339617,VALID,17.5216,VALID,114,VALID,1.04531,
2007-12-30, 02:51:00,VALID,914.378,VALID,0,VALID,100,VALID,-0.0339617,VALID,17.4959,VALID,114,VALID,1.20349,
2007-12-30, 02:52:00,VALID,914.398,VALID,0,VALID,100,VALID,-0.0509425,VALID,17.4859,VALID,119,VALID,1.24219,
2007-12-30, 02:53:00,VALID,914.366,VALID,0,VALID,100,VALID,-0.0339617,VALID,17.4892,VALID,127,VALID,1.35938,
2007-12-30, 02:54:00,VALID,914.381,VALID,0,VALID,100,VALID,-0.0339617,VALID,17.4952,VALID,137,VALID,1.29985,
2007-12-30, 02:55:00,VALID,914.387,VALID,0,VALID,100,VALID,-0.0509425,VALID,17.5051,VALID,144,VALID,0.824491,
2007-12-30, 02:56:00,VALID,914.38,VALID,0,VALID,100,VALID,-0.0169808,VALID,17.4989,VALID,156,VALID,1.15243,
2007-12-30, 02:57:00,VALID,914.353,VALID,0,VALID,100,VALID,-0.0679233,VALID,17.4794,VALID,140,VALID,1.14293,
2007-12-30, 02:58:00,VALID,914.3,VALID,0,VALID,100,VALID,-0.0679233,VALID,17.434,VALID,140,VALID,1.60232,
2007-12-30, 02:59:00,VALID,914.299,VALID,0,VALID,100,VALID,-0.0509425,VALID,17.4405,VALID,143,VALID,1.30015,
2007-12-30, 03:00:00,VALID,914.302,VALID,0,VALID,100,VALID,-0.101885,VALID,17.4535,VALID,160,VALID,1.06232,
2007-12-30, 03:01:00,VALID,914.268,VALID,0,VALID,100,VALID,-0.0509425,VALID,17.4505,VALID,156,VALID,1.37184,
2007-12-30, 03:02:00,VALID,914.23,VALID,0,VALID,100,VALID,-0.0679233,VALID,17.4338,VALID,133,VALID,1.39558,
2007-12-30, 03:03:00,VALID,914.206,VALID,0,VALID,100,VALID,-0.0339617,VALID,17.4049,VALID,120,VALID,1.72852,
2007-12-30, 03:04:00,VALID,914.205,VALID,0,VALID,100,VALID,-0.0169808,VALID,17.4051,VALID,117,VALID,1.33322,
2007-12-30, 03:05:00,VALID,914.208,VALID,0,VALID,100,VALID,-0.0339617,VALID,17.4148,VALID,134,VALID,0.853277,
2007-12-30, 03:06:00,VALID,914.217,VALID,0,VALID,100,VALID,-0.0339617,VALID,17.4146,VALID,130,VALID,0.568407,
2007-12-30, 03:07:00,VALID,914.236,VALID,0,VALID,100,VALID,-0.0509425,VALID,17.45,VALID,151,VALID,1.04901,
2007-12-30, 03:08:00,VALID,914.256,VALID,0,VALID,100,VALID,-0.0849042,VALID,17.4699,VALID,169,VALID,1.1189,
2007-12-30, 03:09:00,VALID,914.25,VALID,0,VALID,100,VALID,-0.0169808,VALID,17.4896,VALID,168,VALID,1.22656,
2007-12-30, 03:10:00,VALID,914.255,VALID,0,VALID,100,VALID,-0.0849042,VALID,17.4827,VALID,163,VALID,1.25164,
2007-12-30, 03:11:00,VALID,914.258,VALID,0,VALID,100,VALID,-0.0509425,VALID,17.4829,VALID,163,VALID,0.703311,
2007-12-30, 03:12:00,VALID,914.258,VALID,0,VALID,100,VALID,0.0679233,VALID,17.4461,VALID,157,VALID,0.71218,
2007-12-30, 03:13:00,VALID,914.248,VALID,0,VALID,100,VALID,0.0509425,VALID,17.4262,VALID,154,VALID,0.883721,
2007-12-30, 03:14:00,VALID,914.236,VALID,0,VALID,100,VALID,0.0679233,VALID,17.407,VALID,133,VALID,1.07924,
2007-12-30, 03:15:00,VALID,914.229,VALID,0,VALID,100,VALID,0.0509425,VALID,17.3806,VALID,125,VALID,0.944754,
2007-12-30, 03:16:00,VALID,914.24,VALID,0,VALID,100,VALID,0.0679233,VALID,17.3582,VALID,85,VALID,0.442073,
2007-12-30, 03:17:00,VALID,914.233,VALID,0,VALID,100,VALID,0.0339617,VALID,17.3871,VALID,138,VALID,1.02191,
2007-12-30, 03:18:00,VALID,914.214,VALID,0,VALID,100,VALID,0,VALID,17.4556,VALID,132,VALID,1.2707,
2007-12-30, 03:19:00,VALID,914.218,VALID,0,VALID,100,VALID,0.0169808,VALID,17.436,VALID,117,VALID,1.14471,
2007-12-30, 03:20:00,VALID,914.244,VALID,0,VALID,100,VALID,0.0339617,VALID,17.4846,VALID,127,VALID,0.95293,
2007-12-30, 03:21:00,VALID,914.26,VALID,0,VALID,100,VALID,0.0339617,VALID,17.5073,VALID,116,VALID,0.744792,
2007-12-30, 03:22:00,VALID,914.255,VALID,0,VALID,100,VALID,0.0169808,VALID,17.5045,VALID,133,VALID,0.922256,
2007-12-30, 03:23:00,VALID,914.243,VALID,0,VALID,100,VALID,0,VALID,17.5073,VALID,132,VALID,1.01667,
2007-12-30, 03:24:00,VALID,914.24,VALID,0,VALID,100,VALID,0.0339617,VALID,17.5337,VALID,133,VALID,1.44635,
2007-12-30, 03:25:00,VALID,914.239,VALID,0,VALID,99.9837,VALID,0.0339617,VALID,17.608,VALID,144,VALID,1.22493,
2007-12-30, 03:26:00,VALID,914.222,VALID,0,VALID,99.5501,VALID,0.0679233,VALID,17.6337,VALID,146,VALID,1.03702,
2007-12-30, 03:27:00,VALID,914.228,VALID,0,VALID,99.2258,VALID,0.0679233,VALID,17.6367,VALID,137,VALID,0.712391,
2007-12-30, 03:28:00,VALID,914.235,VALID,0,VALID,99.2055,VALID,0.0849042,VALID,17.6398,VALID,141,VALID,0.92351,
2007-12-30, 03:29:00,VALID,914.239,VALID,0,VALID,98.9334,VALID,0.0509425,VALID,17.643,VALID,161,VALID,0.833079,
2007-12-30, 03:30:00,VALID,914.257,VALID,0,VALID,98.8622,VALID,0.101885,VALID,17.6242,VALID,160,VALID,0.847747,
2007-12-30, 03:31:00,VALID,914.268,VALID,0,VALID,98.9397,VALID,0.0849042,VALID,17.6041,VALID,155,VALID,0.870164,
2007-12-30, 03:32:00,VALID,914.272,VALID,0,VALID,99.2678,VALID,0.0679233,VALID,17.6143,VALID,164,VALID,0.788867,
2007-12-30, 03:33:00,VALID,914.275,VALID,0,VALID,99.2119,VALID,0.0339617,VALID,17.6437,VALID,158,VALID,1.18921,
2007-12-30, 03:34:00,VALID,914.264,VALID,0,VALID,99.0974,VALID,0.0509425,VALID,17.6076,VALID,160,VALID,1.06758,
2007-12-30, 03:35:00,VALID,914.281,VALID,0,VALID,99.2068,VALID,0.0339617,VALID,17.6015,VALID,143,VALID,0.872196,
2007-12-30, 03:36:00,VALID,914.282,VALID,0,VALID,99.381,VALID,0.0849042,VALID,17.565,VALID,142,VALID,0.895354,
2007-12-30, 03:37:00,VALID,914.291,VALID,0,VALID,99.69,VALID,0.0849042,VALID,17.5684,VALID,142,VALID,0.93679,
2007-12-30, 03:38:00,VALID,914.282,VALID,0,VALID,99.9479,VALID,0.101885,VALID,17.6013,VALID,140,VALID,0.714096,
2007-12-30, 03:39:00,VALID,914.281,VALID,0,VALID,99.6913,VALID,0.101885,VALID,17.5948,VALID,137,VALID,0.356771,